Time,TemperatureF,DewpointF,PressureIn,WindDirection,WindDirectionDegrees,WindSpeedMPH,WindSpeedGustMPH,Humidity,HourlyPrecipIn,Conditions,Clouds,dailyrainin,SoftwareType,DateUTC
2013-03-03 00:03:00,16.6,12.1,30.26,WNW,298,0.0,0.0,82,0.00,,,0.00,VWS V14.01,2013-03-03 06:03:00,
2013-03-03 00:08:00,16.5,12.2,30.26,WNW,298,0.0,1.0,83,0.00,,,0.00,VWS V14.01,2013-03-03 06:08:00,
2013-03-03 00:13:00,16.4,12.1,30.26,WNW,298,0.0,1.0,83,0.00,,,0.00,VWS V14.01,2013-03-03 06:13:00,
2013-03-03 00:18:00,16.4,12.1,30.26,WNW,298,0.0,1.0,83,0.00,,,0.00,VWS V14.01,2013-03-03 06:18:00,
2013-03-03 00:23:00,16.4,12.4,30.26,WNW,298,1.0,1.0,84,0.00,,,0.00,VWS V14.01,2013-03-03 06:23:00,
2013-03-03 00:28:00,16.4,12.4,30.26,WNW,298,0.0,1.0,84,0.00,,,0.00,VWS V14.01,2013-03-03 06:28:00,
2013-03-03 00:33:00,16.3,12.1,30.26,WNW,298,0.0,0.0,83,0.00,,,0.00,VWS V14.01,2013-03-03 06:33:00,
2013-03-03 00:38:00,16.1,11.9,30.26,WNW,298,0.0,0.0,83,0.00,,,0.00,VWS V14.01,2013-03-03 06:38:00,
2013-03-03 00:43:00,16.0,11.8,30.26,WNW,298,1.0,1.0,83,0.00,,,0.00,VWS V14.01,2013-03-03 06:43:00,
2013-03-03 00:48:00,15.9,11.9,30.26,WNW,298,1.0,1.0,84,0.00,,,0.00,VWS V14.01,2013-03-03 06:48:00,
2013-03-03 00:53:00,15.8,11.8,30.26,WNW,298,0.0,2.0,84,0.00,,,0.00,VWS V14.01,2013-03-03 06:53:00,
2013-03-03 00:58:00,15.8,11.8,30.26,WNW,298,0.0,2.0,84,0.00,,,0.00,VWS V14.01,2013-03-03 06:58:00,
2013-03-03 01:03:00,15.8,11.8,30.26,WNW,298,1.0,1.0,84,0.00,,,0.00,VWS V14.01,2013-03-03 07:03:00,
2013-03-03 01:08:00,15.7,11.7,30.26,WNW,298,0.0,1.0,84,0.00,,,0.00,VWS V14.01,2013-03-03 07:08:00,
2013-03-03 01:13:00,15.7,12.0,30.26,WNW,298,0.0,1.0,85,0.00,,,0.00,VWS V14.01,2013-03-03 07:13:00,
2013-03-03 01:18:00,15.7,12.0,30.26,WNW,298,1.0,2.0,85,0.00,,,0.00,VWS V14.01,2013-03-03 07:18:00,
2013-03-03 01:23:00,15.7,11.7,30.26,WNW,298,0.0,2.0,84,0.00,,,0.00,VWS V14.01,2013-03-03 07:23:00,
2013-03-03 01:28:00,15.7,11.7,30.26,WNW,298,0.0,2.0,84,0.00,,,0.00,VWS V14.01,2013-03-03 07:28:00,
2013-03-03 01:33:00,15.5,11.5,30.26,WNW,298,0.0,0.0,84,0.00,,,0.00,VWS V14.01,2013-03-03 07:33:00,
2013-03-03 01:38:00,15.4,11.4,30.26,WNW,298,0.0,0.0,84,0.00,,,0.00,VWS V14.01,2013-03-03 07:38:00,
2013-03-03 01:43:00,15.3,11.3,30.26,WNW,298,0.0,0.0,84,0.00,,,0.00,VWS V14.01,2013-03-03 07:43:00,
2013-03-03 01:48:00,15.2,11.5,30.26,WNW,298,0.0,0.0,85,0.00,,,0.00,VWS V14.01,2013-03-03 07:48:00,
2013-03-03 01:53:00,15.3,11.6,30.26,WNW,298,0.0,0.0,85,0.00,,,0.00,VWS V14.01,2013-03-03 07:53:00,
2013-03-03 01:58:00,15.4,11.7,30.26,WNW,298,0.0,0.0,85,0.00,,,0.00,VWS V14.01,2013-03-03 07:58:00,
2013-03-03 02:03:00,15.3,11.6,30.25,WNW,298,0.0,1.0,85,0.00,,,0.00,VWS V14.01,2013-03-03 08:03:00,
2013-03-03 02:08:00,15.2,11.2,30.25,WNW,298,1.0,1.0,84,0.00,,,0.00,VWS V14.01,2013-03-03 08:08:00,
2013-03-03 02:13:00,14.9,10.9,30.25,WNW,298,0.0,1.0,84,0.00,,,0.00,VWS V14.01,2013-03-03 08:13:00,
2013-03-03 02:18:00,14.6,10.7,30.25,WNW,298,0.0,1.0,84,0.00,,,0.00,VWS V14.01,2013-03-03 08:18:00,
2013-03-03 02:23:00,14.4,10.5,30.25,WNW,298,0.0,1.0,84,0.00,,,0.00,VWS V14.01,2013-03-03 08:23:00,
2013-03-03 02:28:00,14.2,10.3,30.25,WNW,298,0.0,1.0,84,0.00,,,0.00,VWS V14.01,2013-03-03 08:28:00,
2013-03-03 02:33:00,14.1,10.2,30.24,WNW,298,0.0,0.0,84,0.00,,,0.00,VWS V14.01,2013-03-03 08:33:00,
2013-03-03 02:38:00,13.9,10.2,30.24,WNW,298,1.0,1.0,85,0.00,,,0.00,VWS V14.01,2013-03-03 08:38:00,
2013-03-03 02:43:00,13.8,10.1,30.24,WNW,298,1.0,1.0,85,0.00,,,0.00,VWS V14.01,2013-03-03 08:43:00,
2013-03-03 02:48:00,13.7,10.0,30.24,WNW,298,0.0,1.0,85,0.00,,,0.00,VWS V14.01,2013-03-03 08:48:00,
2013-03-03 02:53:00,13.6,9.9,30.23,WNW,298,0.0,1.0,85,0.00,,,0.00,VWS V14.01,2013-03-03 08:53:00,
2013-03-03 02:58:00,13.6,9.9,30.24,WNW,298,1.0,1.0,85,0.00,,,0.00,VWS V14.01,2013-03-03 08:58:00,
2013-03-03 03:03:00,13.7,10.3,30.23,WNW,298,0.0,0.0,86,0.00,,,0.00,VWS V14.01,2013-03-03 09:03:00,
2013-03-03 03:08:00,13.8,10.4,30.23,WNW,298,0.0,0.0,86,0.00,,,0.00,VWS V14.01,2013-03-03 09:08:00,
2013-03-03 03:13:00,13.8,10.4,30.23,WNW,298,0.0,0.0,86,0.00,,,0.00,VWS V14.01,2013-03-03 09:13:00,
2013-03-03 03:19:00,13.6,9.9,30.23,WNW,298,0.0,0.0,85,0.00,,,0.00,VWS V14.01,2013-03-03 09:19:00,
2013-03-03 03:24:00,13.5,9.8,30.22,WNW,298,0.0,0.0,85,0.00,,,0.00,VWS V14.01,2013-03-03 09:24:00,
2013-03-03 03:29:00,13.4,10.0,30.22,WNW,298,0.0,0.0,86,0.00,,,0.00,VWS V14.01,2013-03-03 09:29:00,
2013-03-03 03:34:00,13.4,10.0,30.21,WNW,298,0.0,0.0,86,0.00,,,0.00,VWS V14.01,2013-03-03 09:34:00,
2013-03-03 03:39:00,13.4,10.0,30.21,WNW,298,0.0,0.0,86,0.00,,,0.00,VWS V14.01,2013-03-03 09:39:00,
2013-03-03 03:44:00,13.2,9.6,30.22,WNW,298,0.0,0.0,85,0.00,,,0.00,VWS V14.01,2013-03-03 09:44:00,
2013-03-03 03:49:00,13.0,9.4,30.22,WNW,298,0.0,0.0,85,0.00,,,0.00,VWS V14.01,2013-03-03 09:49:00,
2013-03-03 03:54:00,13.0,9.4,30.22,WNW,298,0.0,0.0,85,0.00,,,0.00,VWS V14.01,2013-03-03 09:54:00,
2013-03-03 03:59:00,12.9,9.2,30.22,WNW,298,0.0,0.0,85,0.00,,,0.00,VWS V14.01,2013-03-03 09:59:00,
2013-03-03 04:04:00,12.8,9.1,30.22,WNW,298,0.0,0.0,85,0.00,,,0.00,VWS V14.01,2013-03-03 10:04:00,
2013-03-03 04:09:00,12.7,9.1,30.23,WNW,298,0.0,0.0,85,0.00,,,0.00,VWS V14.01,2013-03-03 10:09:00,
2013-03-03 04:14:00,12.6,9.2,30.22,WNW,298,0.0,0.0,86,0.00,,,0.00,VWS V14.01,2013-03-03 10:14:00,
2013-03-03 04:19:00,12.6,9.2,30.23,WNW,298,0.0,0.0,86,0.00,,,0.00,VWS V14.01,2013-03-03 10:19:00,
2013-03-03 04:24:00,12.5,8.9,30.23,WNW,298,0.0,0.0,85,0.00,,,0.00,VWS V14.01,2013-03-03 10:24:00,
2013-03-03 04:29:00,12.5,8.9,30.23,WNW,298,1.0,1.0,85,0.00,,,0.00,VWS V14.01,2013-03-03 10:29:00,
2013-03-03 04:34:00,12.4,8.8,30.23,WNW,298,0.0,1.0,85,0.00,,,0.00,VWS V14.01,2013-03-03 10:34:00,
2013-03-03 04:39:00,12.3,8.7,30.23,WNW,298,0.0,1.0,85,0.00,,,0.00,VWS V14.01,2013-03-03 10:39:00,
2013-03-03 04:44:00,12.3,8.7,30.23,WNW,298,0.0,2.0,85,0.00,,,0.00,VWS V14.01,2013-03-03 10:44:00,
2013-03-03 04:49:00,12.4,9.0,30.23,WNW,298,2.0,2.0,86,0.00,,,0.00,VWS V14.01,2013-03-03 10:49:00,
2013-03-03 04:54:00,12.7,9.3,30.22,WNW,298,0.0,2.0,86,0.00,,,0.00,VWS V14.01,2013-03-03 10:54:00,
2013-03-03 04:59:00,12.8,9.4,30.22,WNW,298,0.0,2.0,86,0.00,,,0.00,VWS V14.01,2013-03-03 10:59:00,
2013-03-03 05:04:00,13.0,9.6,30.23,WNW,298,0.0,0.0,86,0.00,,,0.00,VWS V14.01,2013-03-03 11:04:00,
2013-03-03 05:09:00,13.1,9.7,30.22,WNW,298,0.0,0.0,86,0.00,,,0.00,VWS V14.01,2013-03-03 11:09:00,
2013-03-03 05:14:00,13.1,9.7,30.22,WNW,298,0.0,0.0,86,0.00,,,0.00,VWS V14.01,2013-03-03 11:14:00,
2013-03-03 05:19:00,12.9,9.2,30.22,WNW,298,0.0,0.0,85,0.00,,,0.00,VWS V14.01,2013-03-03 11:19:00,
2013-03-03 05:24:00,12.7,9.1,30.22,WNW,298,0.0,0.0,85,0.00,,,0.00,VWS V14.01,2013-03-03 11:24:00,
2013-03-03 05:29:00,12.5,8.9,30.22,WNW,298,0.0,0.0,85,0.00,,,0.00,VWS V14.01,2013-03-03 11:29:00,
2013-03-03 05:34:00,12.4,8.8,30.22,WNW,298,0.0,0.0,85,0.00,,,0.00,VWS V14.01,2013-03-03 11:34:00,
2013-03-03 05:39:00,12.2,8.6,30.22,WNW,298,0.0,0.0,85,0.00,,,0.00,VWS V14.01,2013-03-03 11:39:00,
2013-03-03 05:44:00,12.1,8.5,30.23,WNW,298,0.0,0.0,85,0.00,,,0.00,VWS V14.01,2013-03-03 11:44:00,
2013-03-03 05:49:00,11.9,8.3,30.22,WNW,298,0.0,0.0,85,0.00,,,0.00,VWS V14.01,2013-03-03 11:49:00,
2013-03-03 05:54:00,11.9,8.3,30.22,WNW,298,0.0,0.0,85,0.00,,,0.00,VWS V14.01,2013-03-03 11:54:00,
2013-03-03 05:59:00,11.7,8.1,30.23,WNW,298,0.0,0.0,85,0.00,,,0.00,VWS V14.01,2013-03-03 11:59:00,
2013-03-03 06:04:00,11.7,8.1,30.22,WNW,298,0.0,0.0,85,0.00,,,0.00,VWS V14.01,2013-03-03 12:04:00,
2013-03-03 06:09:00,11.7,8.1,30.22,WNW,298,0.0,0.0,85,0.00,,,0.00,VWS V14.01,2013-03-03 12:09:00,
2013-03-03 06:14:00,11.6,8.0,30.22,WNW,298,0.0,0.0,85,0.00,,,0.00,VWS V14.01,2013-03-03 12:14:00,
2013-03-03 06:19:00,11.7,8.1,30.22,WNW,298,0.0,0.0,85,0.00,,,0.00,VWS V14.01,2013-03-03 12:19:00,
2013-03-03 06:24:00,11.7,8.1,30.22,WNW,298,0.0,0.0,85,0.00,,,0.00,VWS V14.01,2013-03-03 12:24:00,
2013-03-03 06:29:00,11.8,8.4,30.22,WNW,298,0.0,0.0,86,0.00,,,0.00,VWS V14.01,2013-03-03 12:29:00,
2013-03-03 06:34:00,12.0,8.6,30.23,WNW,298,0.0,0.0,86,0.00,,,0.00,VWS V14.01,2013-03-03 12:34:00,
2013-03-03 06:39:00,12.2,8.8,30.22,WNW,298,0.0,0.0,86,0.00,,,0.00,VWS V14.01,2013-03-03 12:39:00,
2013-03-03 06:44:00,12.5,9.1,30.22,WNW,298,0.0,0.0,86,0.00,,,0.00,VWS V14.01,2013-03-03 12:44:00,
2013-03-03 06:49:00,12.6,9.2,30.23,WNW,298,0.0,0.0,86,0.00,,,0.00,VWS V14.01,2013-03-03 12:49:00,
2013-03-03 06:54:00,12.8,9.4,30.22,WNW,298,0.0,0.0,86,0.00,,,0.00,VWS V14.01,2013-03-03 12:54:00,
2013-03-03 06:59:00,12.9,9.2,30.23,WNW,298,0.0,0.0,85,0.00,,,0.00,VWS V14.01,2013-03-03 12:59:00,
2013-03-03 07:04:00,13.1,9.4,30.22,WNW,298,0.0,0.0,85,0.00,,,0.00,VWS V14.01,2013-03-03 13:04:00,
2013-03-03 07:09:00,13.3,9.6,30.22,WNW,298,0.0,0.0,85,0.00,,,0.00,VWS V14.01,2013-03-03 13:09:00,
2013-03-03 07:14:00,13.5,9.8,30.22,WNW,298,0.0,0.0,85,0.00,,,0.00,VWS V14.01,2013-03-03 13:14:00,
2013-03-03 07:19:00,13.7,10.0,30.22,WNW,298,0.0,0.0,85,0.00,,,0.00,VWS V14.01,2013-03-03 13:19:00,
2013-03-03 07:24:00,13.9,10.2,30.22,WNW,298,0.0,0.0,85,0.00,,,0.00,VWS V14.01,2013-03-03 13:24:00,
2013-03-03 07:29:00,14.3,10.6,30.23,WNW,298,0.0,0.0,85,0.00,,,0.00,VWS V14.01,2013-03-03 13:29:00,
2013-03-03 07:34:00,14.6,10.9,30.23,WNW,298,0.0,0.0,85,0.00,,,0.00,VWS V14.01,2013-03-03 13:34:00,
2013-03-03 07:39:00,15.1,11.7,30.23,WNW,298,0.0,0.0,86,0.00,,,0.00,VWS V14.01,2013-03-03 13:39:00,
2013-03-03 07:45:00,15.5,11.8,30.23,WNW,298,1.0,1.0,85,0.00,,,0.00,VWS V14.01,2013-03-03 13:45:00,
2013-03-03 07:50:00,15.9,12.2,30.23,WNW,298,0.0,1.0,85,0.00,,,0.00,VWS V14.01,2013-03-03 13:50:00,
2013-03-03 07:55:00,16.5,12.8,30.23,WNW,298,0.0,1.0,85,0.00,,,0.00,VWS V14.01,2013-03-03 13:55:00,
2013-03-03 08:00:00,17.1,13.4,30.23,WNW,298,0.0,1.0,85,0.00,,,0.00,VWS V14.01,2013-03-03 14:00:00,
2013-03-03 08:05:00,17.7,13.7,30.23,WNW,298,0.0,0.0,84,0.00,,,0.00,VWS V14.01,2013-03-03 14:05:00,
2013-03-03 08:10:00,18.3,14.0,30.23,WNW,298,0.0,0.0,83,0.00,,,0.00,VWS V14.01,2013-03-03 14:10:00,
2013-03-03 08:15:00,18.9,14.6,30.23,WNW,298,0.0,0.0,83,0.00,,,0.00,VWS V14.01,2013-03-03 14:15:00,
2013-03-03 08:20:00,19.5,14.9,30.23,WNW,298,0.0,0.0,82,0.00,,,0.00,VWS V14.01,2013-03-03 14:20:00,
2013-03-03 08:25:00,20.2,15.3,30.24,WNW,298,0.0,0.0,81,0.00,,,0.00,VWS V14.01,2013-03-03 14:25:00,
2013-03-03 08:30:00,20.9,15.7,30.24,WNW,298,1.0,1.0,80,0.00,,,0.00,VWS V14.01,2013-03-03 14:30:00,
2013-03-03 08:35:00,21.5,16.3,30.24,WNW,298,1.0,1.0,80,0.00,,,0.00,VWS V14.01,2013-03-03 14:35:00,
2013-03-03 08:40:00,22.0,16.8,30.24,WNW,298,0.0,2.0,80,0.00,,,0.00,VWS V14.01,2013-03-03 14:40:00,
2013-03-03 08:45:00,22.6,17.1,30.24,WNW,298,2.0,2.0,79,0.00,,,0.00,VWS V14.01,2013-03-03 14:45:00,
2013-03-03 08:50:00,23.0,17.2,30.24,WNW,298,0.0,4.0,78,0.00,,,0.00,VWS V14.01,2013-03-03 14:50:00,
2013-03-03 08:55:00,23.3,17.2,30.24,WNW,298,1.0,4.0,77,0.00,,,0.00,VWS V14.01,2013-03-03 14:55:00,
2013-03-03 09:00:00,23.5,17.4,30.24,WNW,298,2.0,4.0,77,0.00,,,0.00,VWS V14.01,2013-03-03 15:00:00,
2013-03-03 09:05:00,23.8,17.4,30.24,WNW,298,1.0,4.0,76,0.00,,,0.00,VWS V14.01,2013-03-03 15:05:00,
2013-03-03 09:10:00,24.0,17.5,30.24,WNW,298,1.0,4.0,76,0.00,,,0.00,VWS V14.01,2013-03-03 15:10:00,
2013-03-03 09:15:00,24.3,17.8,30.23,WNW,298,0.0,4.0,76,0.00,,,0.00,VWS V14.01,2013-03-03 15:15:00,
2013-03-03 09:20:00,24.7,17.6,30.23,WNW,298,0.0,4.0,74,0.00,,,0.00,VWS V14.01,2013-03-03 15:20:00,
2013-03-03 09:25:00,25.2,18.1,30.23,WNW,298,0.0,4.0,74,0.00,,,0.00,VWS V14.01,2013-03-03 15:25:00,
2013-03-03 09:30:00,25.5,18.1,30.23,WNW,298,0.0,4.0,73,0.00,,,0.00,VWS V14.01,2013-03-03 15:30:00,
2013-03-03 09:35:00,26.0,18.2,30.23,WNW,298,0.0,0.0,72,0.00,,,0.00,VWS V14.01,2013-03-03 15:35:00,
2013-03-03 09:40:00,26.5,18.4,30.23,WNW,298,0.0,1.0,71,0.00,,,0.00,VWS V14.01,2013-03-03 15:40:00,
2013-03-03 09:45:00,27.2,18.7,30.22,WNW,298,0.0,2.0,70,0.00,,,0.00,VWS V14.01,2013-03-03 15:45:00,
2013-03-03 09:50:00,27.7,18.5,30.23,WNW,298,2.0,2.0,68,0.00,,,0.00,VWS V14.01,2013-03-03 15:50:00,
2013-03-03 09:55:00,27.9,18.7,30.23,WNW,298,0.0,2.0,68,0.00,,,0.00,VWS V14.01,2013-03-03 15:55:00,
2013-03-03 10:00:00,28.2,18.7,30.23,WNW,298,0.0,2.0,67,0.00,,,0.00,VWS V14.01,2013-03-03 16:00:00,
2013-03-03 10:05:00,28.6,19.0,30.22,SE,128,0.0,4.0,67,0.00,,,0.00,VWS V14.01,2013-03-03 16:05:00,
2013-03-03 10:10:00,29.1,19.2,30.22,SE,130,1.0,4.0,66,0.00,,,0.00,VWS V14.01,2013-03-03 16:10:00,
2013-03-03 10:15:00,29.3,19.0,30.21,SE,130,1.0,4.0,65,0.00,,,0.00,VWS V14.01,2013-03-03 16:15:00,
2013-03-03 10:20:00,29.6,19.3,30.22,SE,133,2.0,4.0,65,0.00,,,0.00,VWS V14.01,2013-03-03 16:20:00,
2013-03-03 10:25:00,29.6,18.9,30.21,SE,139,0.0,4.0,64,0.00,,,0.00,VWS V14.01,2013-03-03 16:25:00,
2013-03-03 10:30:00,29.7,19.4,30.21,SE,139,0.0,1.0,65,0.00,,,0.00,VWS V14.01,2013-03-03 16:30:00,
2013-03-03 10:35:00,30.1,19.4,30.21,SE,138,1.0,2.0,64,0.00,,,0.00,VWS V14.01,2013-03-03 16:35:00,
2013-03-03 10:40:00,30.3,19.6,30.21,SE,138,0.0,4.0,64,0.00,,,0.00,VWS V14.01,2013-03-03 16:40:00,
2013-03-03 10:45:00,30.5,19.4,30.21,SE,129,0.0,5.0,63,0.00,,,0.00,VWS V14.01,2013-03-03 16:45:00,
2013-03-03 10:50:00,30.8,19.3,30.20,SE,129,4.0,5.0,62,0.00,,,0.00,VWS V14.01,2013-03-03 16:50:00,
2013-03-03 10:55:00,30.9,19.8,30.21,SE,128,2.0,5.0,63,0.00,,,0.00,VWS V14.01,2013-03-03 16:55:00,
2013-03-03 11:00:00,31.1,19.6,30.20,East,96,5.0,5.0,62,0.00,,,0.00,VWS V14.01,2013-03-03 17:00:00,
2013-03-03 11:05:00,31.0,19.1,30.20,East,94,2.0,5.0,61,0.00,,,0.00,VWS V14.01,2013-03-03 17:05:00,
2013-03-03 11:10:00,31.3,20.5,30.20,East,94,0.0,5.0,64,0.00,,,0.00,VWS V14.01,2013-03-03 17:10:00,
2013-03-03 11:15:00,31.9,20.4,30.20,East,94,0.0,5.0,62,0.00,,,0.00,VWS V14.01,2013-03-03 17:15:00,
2013-03-03 11:20:00,32.3,20.0,30.19,ESE,107,2.0,6.0,60,0.00,,,0.00,VWS V14.01,2013-03-03 17:20:00,
2013-03-03 11:25:00,32.3,19.6,30.20,ESE,107,1.0,6.0,59,0.00,,,0.00,VWS V14.01,2013-03-03 17:25:00,
2013-03-03 11:30:00,32.4,19.7,30.20,SSW,200,0.0,0.0,59,0.00,,,0.00,VWS V14.01,2013-03-03 17:30:00,
2013-03-03 11:35:00,32.6,19.9,30.19,East,94,0.0,5.0,59,0.00,,,0.00,VWS V14.01,2013-03-03 17:35:00,
2013-03-03 11:40:00,32.7,20.4,30.19,East,94,0.0,5.0,60,0.00,,,0.00,VWS V14.01,2013-03-03 17:40:00,
2013-03-03 11:45:00,33.0,19.9,30.19,ESE,112,2.0,5.0,58,0.00,,,0.00,VWS V14.01,2013-03-03 17:45:00,
2013-03-03 11:50:00,33.2,20.0,30.19,ESE,112,0.0,5.0,58,0.00,,,0.00,VWS V14.01,2013-03-03 17:50:00,
2013-03-03 11:55:00,33.3,19.7,30.19,SW,219,2.0,5.0,57,0.00,,,0.00,VWS V14.01,2013-03-03 17:55:00,
2013-03-03 12:00:00,32.9,19.4,30.19,SW,217,2.0,3.0,57,0.00,,,0.00,VWS V14.01,2013-03-03 18:00:00,
2013-03-03 12:05:00,32.8,20.1,30.19,ESE,117,1.0,5.0,59,0.00,,,0.00,VWS V14.01,2013-03-03 18:05:00,
2013-03-03 12:10:00,32.9,19.8,30.18,ESE,115,2.0,5.0,58,0.00,,,0.00,VWS V14.01,2013-03-03 18:10:00,
2013-03-03 12:15:00,33.2,20.0,30.18,ESE,116,0.0,5.0,58,0.00,,,0.00,VWS V14.01,2013-03-03 18:15:00,
2013-03-03 12:20:00,33.6,20.0,30.17,ESE,115,0.0,5.0,57,0.00,,,0.00,VWS V14.01,2013-03-03 18:20:00,
2013-03-03 12:25:00,34.1,20.5,30.17,ESE,122,0.0,5.0,57,0.00,,,0.00,VWS V14.01,2013-03-03 18:25:00,
2013-03-03 12:30:00,34.4,20.8,30.16,SE,128,0.0,1.0,57,0.00,,,0.00,VWS V14.01,2013-03-03 18:30:00,
2013-03-03 12:35:00,34.5,20.4,30.17,ESE,121,2.0,4.0,56,0.00,,,0.00,VWS V14.01,2013-03-03 18:35:00,
2013-03-03 12:40:00,34.3,20.7,30.16,ESE,115,2.0,5.0,57,0.00,,,0.00,VWS V14.01,2013-03-03 18:40:00,
2013-03-03 12:46:00,34.2,20.1,30.16,ESE,115,0.0,5.0,56,0.00,,,0.00,VWS V14.01,2013-03-03 18:46:00,
2013-03-03 12:51:00,34.5,20.9,30.16,SE,128,0.0,5.0,57,0.00,,,0.00,VWS V14.01,2013-03-03 18:51:00,
2013-03-03 12:56:00,34.8,20.3,30.16,SE,126,0.0,5.0,55,0.00,,,0.00,VWS V14.01,2013-03-03 18:56:00,
2013-03-03 13:01:00,35.1,21.0,30.16,SE,127,1.0,4.0,56,0.00,,,0.00,VWS V14.01,2013-03-03 19:01:00,
2013-03-03 13:06:00,35.4,20.9,30.15,ESE,119,1.0,7.0,55,0.00,,,0.00,VWS V14.01,2013-03-03 19:06:00,
2013-03-03 13:11:00,35.5,20.5,30.15,ESE,123,0.0,7.0,54,0.00,,,0.00,VWS V14.01,2013-03-03 19:11:00,
2013-03-03 13:16:00,35.9,21.3,30.15,SE,131,0.0,7.0,55,0.00,,,0.00,VWS V14.01,2013-03-03 19:16:00,
2013-03-03 13:21:00,36.2,20.7,30.14,SE,140,1.0,7.0,53,0.00,,,0.00,VWS V14.01,2013-03-03 19:21:00,
2013-03-03 13:26:00,36.5,21.0,30.14,SE,140,2.0,7.0,53,0.00,,,0.00,VWS V14.01,2013-03-03 19:26:00,
2013-03-03 13:31:00,36.4,20.5,30.14,SSE,163,0.0,0.0,52,0.00,,,0.00,VWS V14.01,2013-03-03 19:31:00,
2013-03-03 13:36:00,36.2,19.8,30.14,SSE,163,0.0,5.0,51,0.00,,,0.00,VWS V14.01,2013-03-03 19:36:00,
2013-03-03 13:41:00,36.0,19.2,30.14,SE,138,2.0,6.0,50,0.00,,,0.00,VWS V14.01,2013-03-03 19:41:00,
2013-03-03 13:46:00,35.8,19.9,30.13,ESE,121,4.0,6.0,52,0.00,,,0.00,VWS V14.01,2013-03-03 19:46:00,
2013-03-03 13:51:00,35.6,19.3,30.13,ESE,119,0.0,6.0,51,0.00,,,0.00,VWS V14.01,2013-03-03 19:51:00,
2013-03-03 13:56:00,35.5,19.6,30.12,ESE,119,0.0,6.0,52,0.00,,,0.00,VWS V14.01,2013-03-03 19:56:00,
2013-03-03 14:01:00,35.7,19.8,30.12,ESE,119,0.0,2.0,52,0.00,,,0.00,VWS V14.01,2013-03-03 20:01:00,
2013-03-03 14:06:00,36.0,20.5,30.11,ESE,119,0.0,2.0,53,0.00,,,0.00,VWS V14.01,2013-03-03 20:06:00,
2013-03-03 14:11:00,36.4,20.9,30.11,SE,136,1.0,5.0,53,0.00,,,0.00,VWS V14.01,2013-03-03 20:11:00,
2013-03-03 14:16:00,36.6,20.6,30.11,SE,136,0.0,5.0,52,0.00,,,0.00,VWS V14.01,2013-03-03 20:16:00,
2013-03-03 14:21:00,36.8,20.8,30.11,SE,138,0.0,5.0,52,0.00,,,0.00,VWS V14.01,2013-03-03 20:21:00,
2013-03-03 14:26:00,37.0,21.5,30.11,SE,138,1.0,5.0,53,0.00,,,0.00,VWS V14.01,2013-03-03 20:26:00,
2013-03-03 14:31:00,36.7,21.2,30.11,ESE,105,5.0,5.0,53,0.00,,,0.00,VWS V14.01,2013-03-03 20:31:00,
2013-03-03 14:36:00,35.9,20.9,30.11,ESE,105,1.0,5.0,54,0.00,,,0.00,VWS V14.01,2013-03-03 20:36:00,
2013-03-03 14:41:00,35.6,21.5,30.10,ESE,105,2.0,5.0,56,0.00,,,0.00,VWS V14.01,2013-03-03 20:41:00,
2013-03-03 14:46:00,35.5,21.8,30.10,ESE,105,4.0,5.0,57,0.00,,,0.00,VWS V14.01,2013-03-03 20:46:00,
2013-03-03 14:51:00,35.3,21.2,30.10,ESE,103,0.0,5.0,56,0.00,,,0.00,VWS V14.01,2013-03-03 20:51:00,
2013-03-03 14:56:00,35.3,21.6,30.10,ESE,103,0.0,5.0,57,0.00,,,0.00,VWS V14.01,2013-03-03 20:56:00,
2013-03-03 15:01:00,35.2,21.9,30.10,ESE,103,0.0,1.0,58,0.00,,,0.00,VWS V14.01,2013-03-03 21:01:00,
2013-03-03 15:06:00,35.3,22.4,30.11,ESE,103,1.0,2.0,59,0.00,,,0.00,VWS V14.01,2013-03-03 21:06:00,
2013-03-03 15:11:00,35.5,22.2,30.10,ESE,103,0.0,4.0,58,0.00,,,0.00,VWS V14.01,2013-03-03 21:11:00,
2013-03-03 15:16:00,35.6,21.9,30.10,ESE,103,2.0,4.0,57,0.00,,,0.00,VWS V14.01,2013-03-03 21:16:00,
2013-03-03 15:21:00,35.4,21.7,30.10,East,97,4.0,6.0,57,0.00,,,0.00,VWS V14.01,2013-03-03 21:21:00,
2013-03-03 15:26:00,35.2,21.9,30.10,East,96,4.0,6.0,58,0.00,,,0.00,VWS V14.01,2013-03-03 21:26:00,
2013-03-03 15:31:00,35.0,22.1,30.10,East,92,2.0,4.0,59,0.00,,,0.00,VWS V14.01,2013-03-03 21:31:00,
2013-03-03 15:36:00,35.0,22.1,30.09,East,92,1.0,5.0,59,0.00,,,0.00,VWS V14.01,2013-03-03 21:36:00,
2013-03-03 15:41:00,35.0,21.7,30.09,East,92,1.0,5.0,58,0.00,,,0.00,VWS V14.01,2013-03-03 21:41:00,
2013-03-03 15:46:00,35.1,21.4,30.09,East,92,0.0,5.0,57,0.00,,,0.00,VWS V14.01,2013-03-03 21:46:00,
2013-03-03 15:51:00,35.2,21.9,30.09,East,92,1.0,5.0,58,0.00,,,0.00,VWS V14.01,2013-03-03 21:51:00,
2013-03-03 15:56:00,35.3,21.6,30.09,East,92,1.0,5.0,57,0.00,,,0.00,VWS V14.01,2013-03-03 21:56:00,
2013-03-03 16:01:00,35.3,21.2,30.09,East,92,4.0,5.0,56,0.00,,,0.00,VWS V14.01,2013-03-03 22:01:00,
2013-03-03 16:06:00,35.2,21.1,30.09,East,94,0.0,5.0,56,0.00,,,0.00,VWS V14.01,2013-03-03 22:06:00,
2013-03-03 16:11:00,35.0,21.3,30.09,East,93,1.0,5.0,57,0.00,,,0.00,VWS V14.01,2013-03-03 22:11:00,
2013-03-03 16:16:00,35.0,20.5,30.09,East,94,0.0,5.0,55,0.00,,,0.00,VWS V14.01,2013-03-03 22:16:00,
2013-03-03 16:21:00,34.9,20.4,30.09,ESE,115,2.0,7.0,55,0.00,,,0.00,VWS V14.01,2013-03-03 22:21:00,
2013-03-03 16:26:00,34.8,21.1,30.08,ESE,115,2.0,7.0,57,0.00,,,0.00,VWS V14.01,2013-03-03 22:26:00,
2013-03-03 16:31:00,34.9,20.0,30.08,ESE,116,2.0,4.0,54,0.00,,,0.00,VWS V14.01,2013-03-03 22:31:00,
2013-03-03 16:36:00,34.8,18.1,30.08,ESE,117,0.0,6.0,50,0.00,,,0.00,VWS V14.01,2013-03-03 22:36:00,
2013-03-03 16:41:00,34.9,17.7,30.08,ESE,111,4.0,6.0,49,0.00,,,0.00,VWS V14.01,2013-03-03 22:41:00,
2013-03-03 16:46:00,34.9,17.7,30.08,ESE,112,0.0,6.0,49,0.00,,,0.00,VWS V14.01,2013-03-03 22:46:00,
2013-03-03 16:51:00,34.9,17.2,30.08,ESE,112,0.0,6.0,48,0.00,,,0.00,VWS V14.01,2013-03-03 22:51:00,
2013-03-03 16:56:00,35.0,18.7,30.09,ESE,112,0.0,6.0,51,0.00,,,0.00,VWS V14.01,2013-03-03 22:56:00,
2013-03-03 17:01:00,35.0,18.7,30.08,ESE,112,1.0,2.0,51,0.00,,,0.00,VWS V14.01,2013-03-03 23:01:00,
2013-03-03 17:06:00,35.0,18.2,30.08,ESE,112,1.0,2.0,50,0.00,,,0.00,VWS V14.01,2013-03-03 23:06:00,
2013-03-03 17:11:00,34.9,19.1,30.08,ESE,112,0.0,4.0,52,0.00,,,0.00,VWS V14.01,2013-03-03 23:11:00,
2013-03-03 17:16:00,34.9,19.5,30.08,ESE,112,2.0,4.0,53,0.00,,,0.00,VWS V14.01,2013-03-03 23:16:00,
2013-03-03 17:21:00,34.8,19.9,30.08,ESE,117,4.0,7.0,54,0.00,,,0.00,VWS V14.01,2013-03-03 23:21:00,
2013-03-03 17:26:00,34.8,19.4,30.08,ESE,117,2.0,7.0,53,0.00,,,0.00,VWS V14.01,2013-03-03 23:26:00,
2013-03-03 17:31:00,34.7,19.8,30.09,ESE,118,2.0,5.0,54,0.00,,,0.00,VWS V14.01,2013-03-03 23:31:00,
2013-03-03 17:36:00,34.7,19.8,30.09,ESE,117,1.0,5.0,54,0.00,,,0.00,VWS V14.01,2013-03-03 23:36:00,
2013-03-03 17:41:00,34.6,20.1,30.08,ESE,117,1.0,5.0,55,0.00,,,0.00,VWS V14.01,2013-03-03 23:41:00,
2013-03-03 17:46:00,34.6,21.0,30.08,ESE,118,1.0,5.0,57,0.00,,,0.00,VWS V14.01,2013-03-03 23:46:00,
2013-03-03 17:51:00,34.6,21.0,30.08,ESE,118,1.0,5.0,57,0.00,,,0.00,VWS V14.01,2013-03-03 23:51:00,
2013-03-03 17:56:00,34.5,20.9,30.08,ESE,117,2.0,5.0,57,0.00,,,0.00,VWS V14.01,2013-03-03 23:56:00,
2013-03-03 18:01:00,34.5,20.4,30.08,ESE,117,1.0,4.0,56,0.00,,,0.00,VWS V14.01,2013-03-04 00:01:00,
2013-03-03 18:06:00,34.5,21.3,30.08,ESE,117,0.0,4.0,58,0.00,,,0.00,VWS V14.01,2013-03-04 00:06:00,
2013-03-03 18:11:00,34.4,20.8,30.08,ESE,119,1.0,6.0,57,0.00,,,0.00,VWS V14.01,2013-03-04 00:11:00,
2013-03-03 18:16:00,34.4,21.2,30.08,ESE,119,0.0,6.0,58,0.00,,,0.00,VWS V14.01,2013-03-04 00:16:00,
2013-03-03 18:21:00,34.4,20.8,30.08,ESE,119,1.0,6.0,57,0.00,,,0.00,VWS V14.01,2013-03-04 00:21:00,
2013-03-03 18:26:00,34.4,20.8,30.07,ESE,120,0.0,6.0,57,0.00,,,0.00,VWS V14.01,2013-03-04 00:26:00,
2013-03-03 18:31:00,34.4,19.9,30.08,ESE,118,1.0,4.0,55,0.00,,,0.00,VWS V14.01,2013-03-04 00:31:00,
2013-03-03 18:36:00,34.4,21.2,30.07,ESE,118,0.0,4.0,58,0.00,,,0.00,VWS V14.01,2013-03-04 00:36:00,
2013-03-03 18:42:00,34.4,20.8,30.07,ESE,118,0.0,4.0,57,0.00,,,0.00,VWS V14.01,2013-03-04 00:42:00,
2013-03-03 18:47:00,34.3,21.1,30.07,ESE,114,1.0,6.0,58,0.00,,,0.00,VWS V14.01,2013-03-04 00:47:00,
2013-03-03 18:52:00,34.4,21.6,30.07,ESE,114,0.0,6.0,59,0.00,,,0.00,VWS V14.01,2013-03-04 00:52:00,
2013-03-03 18:57:00,34.4,22.4,30.07,ESE,115,1.0,6.0,61,0.00,,,0.00,VWS V14.01,2013-03-04 00:57:00,
2013-03-03 19:02:00,34.3,22.6,30.07,ESE,113,1.0,4.0,62,0.00,,,0.00,VWS V14.01,2013-03-04 01:02:00,
2013-03-03 19:07:00,34.3,22.6,30.07,ESE,111,1.0,5.0,62,0.00,,,0.00,VWS V14.01,2013-03-04 01:07:00,
2013-03-03 19:12:00,34.3,23.0,30.08,ESE,111,1.0,5.0,63,0.00,,,0.00,VWS V14.01,2013-03-04 01:12:00,
2013-03-03 19:17:00,34.2,22.9,30.08,ESE,111,1.0,5.0,63,0.00,,,0.00,VWS V14.01,2013-03-04 01:17:00,
2013-03-03 19:22:00,34.3,22.6,30.08,ESE,105,1.0,6.0,62,0.00,,,0.00,VWS V14.01,2013-03-04 01:22:00,
2013-03-03 19:27:00,34.3,23.0,30.08,ESE,105,2.0,6.0,63,0.00,,,0.00,VWS V14.01,2013-03-04 01:27:00,
2013-03-03 19:32:00,34.3,23.0,30.07,ESE,105,4.0,5.0,63,0.00,,,0.00,VWS V14.01,2013-03-04 01:32:00,
2013-03-03 19:37:00,34.3,23.0,30.07,ESE,105,1.0,5.0,63,0.00,,,0.00,VWS V14.01,2013-03-04 01:37:00,
2013-03-03 19:42:00,34.3,22.6,30.07,ESE,104,1.0,5.0,62,0.00,,,0.00,VWS V14.01,2013-03-04 01:42:00,
2013-03-03 19:47:00,34.3,23.0,30.07,ESE,103,1.0,5.0,63,0.00,,,0.00,VWS V14.01,2013-03-04 01:47:00,
2013-03-03 19:52:00,34.3,22.3,30.07,ESE,103,2.0,5.0,61,0.00,,,0.00,VWS V14.01,2013-03-04 01:52:00,
2013-03-03 19:57:00,34.2,22.5,30.06,ESE,103,2.0,5.0,62,0.00,,,0.00,VWS V14.01,2013-03-04 01:57:00,
2013-03-03 20:02:00,34.2,22.5,30.06,ESE,103,0.0,2.0,62,0.00,,,0.00,VWS V14.01,2013-03-04 02:02:00,
2013-03-03 20:07:00,34.1,22.5,30.06,ESE,103,4.0,4.0,62,0.00,,,0.00,VWS V14.01,2013-03-04 02:07:00,
2013-03-03 20:12:00,34.1,22.5,30.06,ESE,103,0.0,4.0,62,0.00,,,0.00,VWS V14.01,2013-03-04 02:12:00,
2013-03-03 20:17:00,34.0,22.4,30.05,East,96,2.0,6.0,62,0.00,,,0.00,VWS V14.01,2013-03-04 02:17:00,
2013-03-03 20:22:00,34.0,22.4,30.05,East,96,0.0,6.0,62,0.00,,,0.00,VWS V14.01,2013-03-04 02:22:00,
2013-03-03 20:27:00,34.0,22.7,30.05,East,95,2.0,6.0,63,0.00,,,0.00,VWS V14.01,2013-03-04 02:27:00,
2013-03-03 20:32:00,34.0,22.7,30.05,East,95,1.0,4.0,63,0.00,,,0.00,VWS V14.01,2013-03-04 02:32:00,
2013-03-03 20:37:00,34.0,23.1,30.05,ESE,102,0.0,7.0,64,0.00,,,0.00,VWS V14.01,2013-03-04 02:37:00,
2013-03-03 20:42:00,33.9,23.0,30.06,East,101,1.0,7.0,64,0.00,,,0.00,VWS V14.01,2013-03-04 02:42:00,
2013-03-03 20:47:00,33.9,22.6,30.06,East,101,0.0,7.0,63,0.00,,,0.00,VWS V14.01,2013-03-04 02:47:00,
2013-03-03 20:52:00,33.9,23.0,30.06,East,101,0.0,7.0,64,0.00,,,0.00,VWS V14.01,2013-03-04 02:52:00,
2013-03-03 20:57:00,34.0,23.1,30.06,East,99,2.0,7.0,64,0.00,,,0.00,VWS V14.01,2013-03-04 02:57:00,
2013-03-03 21:02:00,34.0,23.5,30.06,East,99,0.0,2.0,65,0.00,,,0.00,VWS V14.01,2013-03-04 03:02:00,
2013-03-03 21:07:00,34.1,23.2,30.06,East,99,0.0,4.0,64,0.00,,,0.00,VWS V14.01,2013-03-04 03:07:00,
2013-03-03 21:12:00,34.1,23.6,30.06,East,99,1.0,4.0,65,0.00,,,0.00,VWS V14.01,2013-03-04 03:12:00,
2013-03-03 21:17:00,34.1,23.6,30.05,East,98,0.0,4.0,65,0.00,,,0.00,VWS V14.01,2013-03-04 03:17:00,
2013-03-03 21:22:00,34.0,23.5,30.06,East,99,0.0,4.0,65,0.00,,,0.00,VWS V14.01,2013-03-04 03:22:00,
2013-03-03 21:27:00,33.9,23.4,30.06,East,98,0.0,4.0,65,0.00,,,0.00,VWS V14.01,2013-03-04 03:27:00,
2013-03-03 21:32:00,33.9,23.4,30.06,East,99,0.0,2.0,65,0.00,,,0.00,VWS V14.01,2013-03-04 03:32:00,
2013-03-03 21:37:00,33.9,23.4,30.06,East,99,0.0,2.0,65,0.00,,,0.00,VWS V14.01,2013-03-04 03:37:00,
2013-03-03 21:42:00,33.9,23.0,30.06,East,99,0.0,2.0,64,0.00,,,0.00,VWS V14.01,2013-03-04 03:42:00,
2013-03-03 21:47:00,33.9,23.4,30.06,East,99,0.0,2.0,65,0.00,,,0.00,VWS V14.01,2013-03-04 03:47:00,
2013-03-03 21:52:00,33.9,23.8,30.06,East,99,1.0,2.0,66,0.00,,,0.00,VWS V14.01,2013-03-04 03:52:00,
2013-03-03 21:57:00,34.0,23.1,30.07,East,99,0.0,2.0,64,0.00,,,0.00,VWS V14.01,2013-03-04 03:57:00,
2013-03-03 22:02:00,34.1,23.6,30.07,East,99,0.0,0.0,65,0.00,,,0.00,VWS V14.01,2013-03-04 04:02:00,
2013-03-03 22:07:00,34.1,23.2,30.07,ESE,103,2.0,4.0,64,0.00,,,0.00,VWS V14.01,2013-03-04 04:07:00,
2013-03-03 22:12:00,34.1,22.8,30.07,ESE,103,0.0,4.0,63,0.00,,,0.00,VWS V14.01,2013-03-04 04:12:00,
2013-03-03 22:17:00,34.2,23.3,30.06,ESE,103,1.0,4.0,64,0.00,,,0.00,VWS V14.01,2013-03-04 04:17:00,
2013-03-03 22:22:00,34.2,24.0,30.06,ESE,103,0.0,4.0,66,0.00,,,0.00,VWS V14.01,2013-03-04 04:22:00,
2013-03-03 22:27:00,34.2,23.7,30.06,ESE,103,4.0,5.0,65,0.00,,,0.00,VWS V14.01,2013-03-04 04:27:00,
2013-03-03 22:32:00,34.2,23.7,30.06,ESE,103,1.0,2.0,65,0.00,,,0.00,VWS V14.01,2013-03-04 04:32:00,
2013-03-03 22:37:00,34.1,23.6,30.06,ESE,103,1.0,4.0,65,0.00,,,0.00,VWS V14.01,2013-03-04 04:37:00,
2013-03-03 22:42:00,34.2,24.0,30.06,ESE,103,0.0,4.0,66,0.00,,,0.00,VWS V14.01,2013-03-04 04:42:00,
2013-03-03 22:47:00,34.1,24.0,30.06,ESE,103,0.0,4.0,66,0.00,,,0.00,VWS V14.01,2013-03-04 04:47:00,
2013-03-03 22:52:00,34.1,24.0,30.06,ESE,103,2.0,4.0,66,0.00,,,0.00,VWS V14.01,2013-03-04 04:52:00,
2013-03-03 22:58:00,34.2,24.0,30.06,ESE,103,0.0,4.0,66,0.00,,,0.00,VWS V14.01,2013-03-04 04:58:00,
2013-03-03 23:00:00,34.2,24.0,30.06,ESE,103,1.0,4.0,66,0.00,,,0.00,VWS V14.01,2013-03-04 05:00:00,
2013-03-03 23:08:00,34.3,24.1,30.06,ESE,103,2.0,2.0,66,0.00,,,0.00,VWS V14.01,2013-03-04 05:08:00,
2013-03-03 23:13:00,34.3,24.5,30.05,ESE,103,1.0,2.0,67,0.00,,,0.00,VWS V14.01,2013-03-04 05:13:00,
2013-03-03 23:18:00,34.3,24.5,30.05,ESE,103,1.0,4.0,67,0.00,,,0.00,VWS V14.01,2013-03-04 05:18:00,
2013-03-03 23:23:00,34.3,24.5,30.05,ESE,103,2.0,4.0,67,0.00,,,0.00,VWS V14.01,2013-03-04 05:23:00,
2013-03-03 23:28:00,34.3,24.9,30.05,ESE,103,1.0,4.0,68,0.00,,,0.00,VWS V14.01,2013-03-04 05:28:00,
2013-03-03 23:33:00,34.4,25.0,30.05,ESE,103,0.0,2.0,68,0.00,,,0.00,VWS V14.01,2013-03-04 05:33:00,
2013-03-03 23:38:00,34.4,25.0,30.05,ESE,103,0.0,2.0,68,0.00,,,0.00,VWS V14.01,2013-03-04 05:38:00,
2013-03-03 23:43:00,34.4,25.3,30.05,ESE,103,0.0,2.0,69,0.00,,,0.00,VWS V14.01,2013-03-04 05:43:00,
2013-03-03 23:48:00,34.4,25.0,30.05,ESE,103,2.0,2.0,68,0.00,,,0.00,VWS V14.01,2013-03-04 05:48:00,
2013-03-03 23:53:00,34.4,25.3,30.05,ESE,106,5.0,5.0,69,0.00,,,0.00,VWS V14.01,2013-03-04 05:53:00,
2013-03-03 23:58:00,34.5,25.0,30.05,ESE,105,0.0,5.0,68,0.00,,,0.00,VWS V14.01,2013-03-04 05:58:00,